Location: ??
(35.3149°N, 139.6204°E)
Time: 10:25:33
(UTC+00:00)

Cosmos 1980 - Pass Details

Date: 03 August 2024
Orbit: 836 x 848 km, 71.0° (Epoch: 09 September)

Event Time Altitude Azimuth Distance (km) Brightness Sun altitude
Exits shadow 18:10:38 16° 179° (S) 2,042 5.4 -18.8°
Maximum altitude 18:14:58 54° 107° (ESE) 1,019 4.3 -18.1°
Drops below altitude 10° 18:20:27 10° 31° (NNE) 2,465 7.2 -17.2°
Sets 18:22:57 0° 27° (NNE) 3,406 8.0 -16.8°
